[[{"header":{"parameterUnit":"m.s-1","parameterCategory":1,"la1":30.2991,"la2":30.254,"lo1":-89.0895,"lo2":-89.0444,"dy":0.0017,"dx":0.0017,"nx":28,"ny":28,"refTime":"2024-08-31T09:00:00:Z","depth":0,"parameterNumber":2,"parameterNumberName":"U-component_of_WINDS"},"data":[0,0,0,0,0,0,0,0,0,0,0,0,0,0,0,0,0,0,0,0,0,0,0,0,0,0,0,0,0,0,0,0,0,0,0,0,0,0,0,0,0,0,0,0,0,0,0,0,0,0,0,0,0,0,0,0,0,0,-1.4639,-1.464,0,-1.4727,-1.4728,-1.4729,-1.4722,-1.472,-1.4719,-1.4718,-1.4814,-1.4818,-1.4821,0,0,0,0,0,0,0,0,0,0,0,0,0,-1.4472,-1.4475,-1.4639,-1.464,-1.4641,-1.4727,-1.4728,-1.4729,-1.4722,-1.472,-1.4719,-1.4717,-1.4813,-1.4817,-1.4822,0,0,0,0,0,0,0,0,0,0,0,0,0,-1.4551,-1.4476,-1.4639,-1.4648,-1.4649,-1.4726,-1.4728,-1.4729,-1.4722,-1.472,-1.4718,-1.4716,-1.4811,-1.4817,-1.4822,-1.4898,0,0,-1.484,-1.4842,0,0,0,0,0,0,0,0,-1.4546,-1.4557,-1.4645,-1.4647,-1.4649,-1.4711,-1.4704,-1.4786,-1.4723,-1.4695,-1.4718,-1.4715,-1.4782,-1.479,-1.4811,-1.4903,-1.4907,-1.484,-1.4844,-1.4846,-1.4848,0,0,0,0,0,0,0,-1.4541,-1.4553,-1.4674,-1.4647,-1.4649,-1.465,-1.4658,-1.472,-1.4749,-1.4697,-1.4697,-1.4707,-1.4783,-1.4805,-1.4813,-1.4908,-1.484,-1.4845,-1.4849,-1.4851,-1.5067,-1.5069,0,0,0,0,0,0,-1.4532,-1.4549,-1.4671,-1.4677,-1.4592,-1.4654,-1.4664,-1.4693,-1.4748,-1.4754,-1.4708,-1.4706,-1.4797,-1.4806,-1.4816,-1.4909,-1.4846,-1.4852,-1.4855,-1.5065,-1.5068,-1.507,0,0,0,0,0,0,-1.4529,-1.4543,-1.4668,-1.4613,-1.4628,-1.4659,-1.4692,-1.4696,-1.4719,-1.4756,-1.4762,-1.4726,-1.4795,-1.4808,-1.4878,-1.4912,-1.4854,-1.486,-1.5062,-1.5066,-1.5069,-1.5094,0,0,0,0,0,0,-1.4524,-1.4542,-1.457,-1.4613,-1.4631,-1.4726,-1.4694,-1.4699,-1.4728,-1.4726,-1.4775,-1.4781,-1.4795,-1.4869,-1.4883,-1.4919,-1.4864,-1.5059,-1.5064,-1.5068,-1.5091,-1.5098,-1.5105,0,0,0,0,0,-1.4518,-1.4575,-1.4571,-1.4586,-1.4666,-1.4727,-1.4738,-1.4751,-1.4731,-1.476,-1.4784,-1.4779,-1.4906,-1.4876,-1.4892,-1.493,-1.5057,-1.5063,-1.5068,-1.5088,-1.5097,-1.5105,0,0,0,0,0,0,-1.4538,-1.4581,-1.4577,-1.4649,-1.4684,-1.4726,-1.4763,-1.4761,-1.4804,-1.4801,-1.4817,-1.4828,-1.4898,-1.4921,-1.4887,-1.5007,-1.4979,-1.4988,-1.4989,-1.4998,-1.5005,-1.4999,-1.4869,0,0,0,0,0,-1.455,-1.4594,-1.463,-1.469,-1.4708,-1.4732,-1.476,-1.4766,-1.4804,-1.482,-1.4849,-1.4888,-1.4937,-1.4969,-1.5015,-1.5094,-1.5105,-1.5128,-1.5135,-1.5141,-1.5148,-1.5192,-1.5203,-1.5087,-1.5087,-1.5087,0,0,-1.4577,-1.4606,-1.4633,-1.4695,-1.4723,-1.477,-1.4745,-1.4796,-1.4832,-1.4829,-1.4895,-1.4918,-1.4963,-1.5036,-1.5071,-1.5058,-1.5183,-1.5147,-1.5151,-1.5156,-1.5199,-1.521,-1.5219,-1.5091,-1.509,-1.509,0,0,-1.4649,-1.4675,-1.4728,-1.4756,-1.4798,-1.4813,-1.4826,-1.4868,-1.4882,-1.4949,-1.4947,-1.4991,-1.5074,-1.5106,-1.5133,-1.5217,-1.5215,-1.5232,-1.527,-1.5312,-1.5321,-1.5329,-1.536,-1.5371,-1.5239,-1.5239,-1.5239,0,-1.4678,-1.4747,-1.4756,-1.4807,-1.4835,-1.4831,-1.4886,-1.4914,-1.497,-1.499,-1.4974,-1.5078,-1.5108,-1.519,-1.521,-1.5232,-1.5249,-1.5227,-1.5319,-1.5327,-1.5335,-1.5365,-1.5376,-1.5241,-1.5241,-1.5241,-1.5241,0,-1.478,-1.4828,-1.4866,-1.4917,-1.4949,-1.5002,-1.5022,-1.5054,-1.5057,-1.5075,-1.5144,-1.5179,-1.5233,-1.5253,-1.5258,-1.5336,-1.5326,-1.5315,-1.5288,-1.5348,-1.5376,-1.5387,-1.5244,-1.5243,-1.5243,-1.5242,0,0,-1.4869,-1.4923,-1.4937,-1.496,-1.5006,-1.5044,-1.5097,-1.5147,-1.5175,-1.5214,-1.526,-1.533,-1.5319,-1.535,-1.5358,-1.5396,-1.5461,-1.538,-1.5381,-1.5394,-1.5549,-1.5559,-1.5571,-1.5459,-1.5461,-1.5463,-1.5546,0,-1.4947,-1.5038,-1.5048,-1.5131,-1.5175,-1.5172,-1.5219,-1.5253,-1.5271,-1.5313,-1.5334,-1.5384,-1.5365,-1.5384,-1.542,-1.5445,-1.5492,-1.5439,-1.5504,-1.5506,-1.5494,-1.5586,-1.5596,-1.5673,-1.5557,-1.5559,-1.556,0,-1.505,-1.5089,-1.5175,-1.5214,-1.5233,-1.5274,-1.5321,-1.5361,-1.54,-1.5411,-1.5444,-1.5448,-1.5505,-1.5474,-1.5554,-1.5518,-1.5545,-1.5561,-1.5564,-1.5572,-1.5538,-1.5597,-1.5698,-1.571,-1.5577,-1.5576,-1.5575,0,-1.5107,-1.5181,-1.5242,-1.5262,-1.5309,-1.5338,-1.5359,-1.5395,-1.5425,-1.5467,-1.5486,-1.5535,-1.5562,-1.5601,-1.5618,-1.5594,-1.5697,-1.5668,-1.571,-1.5709,-1.5733,-1.5731,-1.584,-1.5748,-1.5748,-1.5748,-1.5748,0,-1.5194,-1.5247,-1.5268,-1.5306,-1.5366,-1.5377,-1.5437,-1.5458,-1.549,-1.5533,-1.5534,-1.5575,-1.5595,-1.564,-1.5654,-1.5719,-1.5731,-1.5743,-1.5746,-1.5743,-1.5742,-1.5762,-1.5758,-1.5751,-1.575,-1.575,-1.5749,0,-1.5269,-1.5285,-1.5351,-1.5389,-1.5399,-1.5442,-1.5475,-1.5513,-1.5529,-1.5584,-1.5598,-1.5626,-1.5678,-1.5699,-1.5764,-1.5774,-1.5848,-1.5847,-1.5834,-1.5836,-1.5876,-1.5872,-1.6003,-1.6021,-1.5916,-1.5917,-1.5918,0,-1.5324,-1.5364,-1.5405,-1.5432,-1.5454,-1.5498,-1.5528,-1.5541,-1.5572,-1.5618,-1.5651,-1.5702,-1.5745,-1.5829,-1.5857,-1.5907,-1.5908,-1.595,-1.5915,-1.5911,-1.591,-1.5907,-1.5912,-1.5957,-1.5958,-1.5959,-1.5959,0,-1.542,-1.5425,-1.5466,-1.551,-1.5544,-1.5579,-1.5614,-1.5638,-1.5656,-1.5691,-1.5743,-1.5776,-1.5841,-1.5893,-1.5944,-1.5968,-1.5968,-1.5969,-1.5982,-1.598,-1.5971,-1.5978,-1.5853,-1.5967,-1.5966,-1.5966,-1.5965,-1.5965,-1.5487,-1.5523,-1.5557,-1.5602,-1.5629,-1.5661,-1.5698,-1.5718,-1.5761,-1.5813,-1.5819,-1.5875,-1.5914,-1.5982,-1.6008,-1.6054,-1.6044,-1.6061,-1.6066,-1.6071,-1.6074,-1.5962,-1.6064,-1.6063,-1.6063,-1.6063,-1.6063,0,-1.5584,-1.5605,-1.5647,-1.5694,-1.573,-1.5722,-1.5761,-1.5792,-1.5841,-1.5875,-1.5916,-1.5976,-1.6026,-1.6057,-1.6108,-1.6139,-1.614,-1.6152,-1.6151,-1.6157,-1.608,-1.6064,-1.615,-1.615,-1.615,-1.615,-1.615,-1.615,-1.5639,-1.5699,-1.5708,-1.5782,-1.5803,-1.5856,-1.5879,-1.5909,-1.5936,-1.6003,-1.6043,-1.6062,-1.6095,-1.6148,-1.6195,-1.6203,-1.6222,-1.6235,-1.6243,-1.6171,-1.6162,-1.6153,-1.6139,-1.6239,-1.6239,-1.6316,-1.6316,-1.6317]},{"header":{"parameterUnit":"m.s-1","parameterCategory":1,"la1":30.2991,"la2":30.254,"lo1":-89.0895,"lo2":-89.0444,"dy":0.0017,"dx":0.0017,"nx":28,"ny":28,"refTime":"2024-08-31T09:00:00:Z","depth":0,"parameterNumber":3,"parameterNumberName":"V-component_of_WINDS"},"data":[0,0,0,0,0,0,0,0,0,0,0,0,0,0,0,0,0,0,0,0,0,0,0,0,0,0,0,0,0,0,0,0,0,0,0,0,0,0,0,0,0,0,0,0,0,0,0,0,0,0,0,0,0,0,0,0,0,0,0.0302,0.0303,0,0.0362,0.0363,0.0363,0.0387,0.0387,0.0387,0.0387,0.0447,0.0448,0.045,0,0,0,0,0,0,0,0,0,0,0,0,0,0.0207,0.0209,0.0302,0.0303,0.0303,0.0362,0.0363,0.0363,0.0387,0.0387,0.0387,0.0387,0.0446,0.0448,0.045,0,0,0,0,0,0,0,0,0,0,0,0,0,0.0256,0.021,0.0302,0.0322,0.0325,0.0362,0.0363,0.0364,0.0387,0.0387,0.0387,0.0387,0.0445,0.0448,0.045,0.0471,0,0,0.0458,0.0459,0,0,0,0,0,0,0,0,0.0253,0.0259,0.0319,0.0321,0.0324,0.0367,0.0351,0.0399,0.0387,0.0364,0.0387,0.0387,0.042,0.0425,0.0436,0.0473,0.0476,0.0459,0.046,0.0461,0.0462,0,0,0,0,0,0,0,0.025,0.0257,0.0326,0.0319,0.0323,0.0328,0.0335,0.036,0.0392,0.0366,0.0367,0.0374,0.0421,0.0434,0.0438,0.0477,0.0458,0.0461,0.0462,0.0463,0.0535,0.0535,0,0,0,0,0,0,0.0243,0.0254,0.0324,0.0327,0.0287,0.033,0.0338,0.0353,0.0392,0.0398,0.0374,0.0375,0.043,0.0435,0.044,0.0467,0.0461,0.0464,0.0465,0.0534,0.0535,0.0535,0,0,0,0,0,0,0.0241,0.0249,0.0321,0.0291,0.0301,0.0332,0.0349,0.0355,0.0367,0.0399,0.0404,0.0381,0.043,0.0437,0.0463,0.047,0.0465,0.0467,0.0534,0.0535,0.0535,0.0521,0,0,0,0,0,0,0.0238,0.0248,0.0256,0.0291,0.0302,0.0343,0.035,0.0356,0.0372,0.0373,0.0407,0.0412,0.043,0.0459,0.0466,0.0473,0.0469,0.0534,0.0534,0.0535,0.0521,0.0521,0.0521,0,0,0,0,0,0.0235,0.0249,0.0257,0.0265,0.0313,0.0344,0.035,0.0371,0.0372,0.038,0.0401,0.0411,0.0468,0.0462,0.0469,0.0478,0.0533,0.0534,0.0535,0.0521,0.0521,0.0521,0,0,0,0,0,0,0.0213,0.0254,0.0263,0.0289,0.0313,0.0348,0.0359,0.037,0.0394,0.0394,0.0418,0.0426,0.0451,0.0467,0.0459,0.05,0.0501,0.0504,0.0488,0.0489,0.0489,0.0484,0.0471,0,0,0,0,0,0.0212,0.0234,0.0268,0.0288,0.03,0.0327,0.0341,0.0355,0.0381,0.0391,0.0413,0.0437,0.0461,0.0475,0.0499,0.0524,0.0532,0.0533,0.0533,0.0533,0.0534,0.055,0.0551,0.0538,0.0538,0.0538,0,0,0.0209,0.0234,0.0246,0.0284,0.0304,0.0326,0.0335,0.0358,0.0375,0.0394,0.0421,0.0438,0.0467,0.0493,0.0506,0.0507,0.054,0.0534,0.0533,0.0535,0.0551,0.0552,0.0553,0.0538,0.0538,0.0538,0,0,0.0214,0.0235,0.0255,0.0275,0.0306,0.0324,0.0329,0.0362,0.0375,0.0403,0.0418,0.0438,0.0478,0.0498,0.0513,0.0528,0.0538,0.0534,0.0534,0.0549,0.055,0.0551,0.0557,0.0558,0.0536,0.0536,0.0536,0,0.0206,0.024,0.0263,0.0285,0.0302,0.0322,0.0342,0.036,0.0397,0.0408,0.0409,0.046,0.0481,0.0512,0.0516,0.0527,0.0534,0.0531,0.0548,0.0549,0.055,0.0556,0.0558,0.0535,0.0535,0.0535,0.0535,0,0.0229,0.0253,0.0265,0.0301,0.0319,0.0339,0.0366,0.0381,0.0394,0.0412,0.0441,0.0466,0.0495,0.0504,0.0516,0.0538,0.0538,0.0543,0.0545,0.0551,0.0557,0.0559,0.0534,0.0535,0.0535,0.0535,0,0,0.0222,0.0271,0.0275,0.0292,0.0328,0.0347,0.0369,0.0398,0.0412,0.0436,0.0456,0.0489,0.0495,0.0513,0.0527,0.054,0.0551,0.0544,0.0545,0.0545,0.0577,0.0573,0.0575,0.0558,0.0559,0.0559,0.0575,0,0.0233,0.0274,0.0296,0.0327,0.035,0.0369,0.0389,0.0413,0.0431,0.0452,0.0472,0.0496,0.0501,0.0512,0.0526,0.0547,0.0558,0.0546,0.0577,0.0577,0.0569,0.0578,0.0574,0.0588,0.0577,0.0578,0.0578,0,0.0251,0.0276,0.0311,0.0345,0.0355,0.0372,0.0402,0.0422,0.045,0.0462,0.0482,0.0497,0.0522,0.0522,0.0556,0.0547,0.0561,0.0574,0.0575,0.0578,0.0578,0.0583,0.0592,0.0594,0.0582,0.0582,0.0581,0,0.0243,0.0286,0.0312,0.0326,0.0367,0.0378,0.0396,0.0424,0.0441,0.0466,0.0477,0.0505,0.052,0.0541,0.0563,0.0561,0.0595,0.0597,0.0606,0.0606,0.0613,0.0612,0.0625,0.0621,0.0621,0.0621,0.0621,0,0.0253,0.0273,0.031,0.0326,0.0349,0.0374,0.0397,0.0415,0.044,0.0461,0.0479,0.0498,0.0526,0.0548,0.0565,0.0591,0.0598,0.0608,0.0613,0.0607,0.0606,0.0616,0.0616,0.0621,0.0621,0.0621,0.0621,0,0.0248,0.0273,0.0303,0.034,0.035,0.0365,0.0397,0.0413,0.0433,0.0458,0.0465,0.0496,0.0523,0.0547,0.0583,0.0595,0.0621,0.0627,0.0612,0.0614,0.0622,0.0621,0.0643,0.0647,0.064,0.064,0.064,0,0.0253,0.0269,0.0308,0.0323,0.034,0.0364,0.0382,0.0407,0.0425,0.0459,0.0471,0.05,0.0524,0.0567,0.0592,0.0619,0.0626,0.0632,0.063,0.0624,0.0627,0.0625,0.0628,0.0631,0.0631,0.0631,0.0631,0,0.0259,0.0271,0.0295,0.0325,0.0345,0.037,0.0394,0.0406,0.0436,0.0455,0.0483,0.0502,0.0539,0.0568,0.0598,0.0616,0.0629,0.0632,0.0635,0.0629,0.0621,0.0626,0.0612,0.0631,0.0631,0.0631,0.0631,0.0631,0.0259,0.0275,0.0305,0.0332,0.0354,0.0377,0.0395,0.0417,0.0441,0.0474,0.0487,0.0516,0.0545,0.0588,0.0606,0.0629,0.0631,0.0636,0.0638,0.0639,0.0638,0.0617,0.0634,0.0634,0.0635,0.0635,0.0635,0,0.0266,0.0287,0.0312,0.0347,0.0368,0.0379,0.0407,0.0425,0.045,0.0476,0.05,0.0533,0.0561,0.0589,0.0619,0.0632,0.0638,0.0639,0.0638,0.0642,0.0634,0.0628,0.0633,0.0633,0.0633,0.0633,0.0633,0.0633,0.0273,0.03,0.0316,0.0355,0.0375,0.0405,0.042,0.0441,0.0462,0.0499,0.0523,0.0541,0.0568,0.06,0.0626,0.0633,0.0643,0.0642,0.0651,0.0643,0.0643,0.0642,0.0637,0.0644,0.0644,0.0658,0.0658,0.0658]}]]